Zurück zum Katalog

NADEZHDA 7

AktivKommunikationPO
NORAD 27534·PAYLOAD·🇷🇺 Russia

Gestartet Sep 26, 2002 von Plesetsk Cosmodrome

Loading…

Nächste Überflüge (nächste 24 Stunden)

TLE

AktuellSource: Space-Track

Epoche: Sep 14, 2026, 00:41 UTC

1 27534U 02046A   26257.02894094  .00000033  00000-0  18927-4 0  9998
2 27534  82.9305 265.1016 0037579  86.1343 302.4752 13.72968735200755

Verfolge NADEZHDA 7 in Echtzeit mit AllMySat

Download on the App Store